FW2211 Weather Reports


Display with metric or nautical units.
time (UTC)temp
F
wind
direction
speed
MPH
gust
MPH
rain 1hr
in
rain 24hr
in
rain mn
in
humidity
%
barometer
mb
20191018064716 72 135 1.0 1.0 0.00 0.00 0.00 81 1006.5
20191018063723 72 135 2.0 2.0 0.00 0.00 0.00 77 1006.5
20191018062715 72 157 1.0 1.0 0.00 0.00 0.00 78 1006.5
20191018061716 72 157 1.0 2.0 0.00 0.00 0.00 76 1006.6
20191018060716 73 0.0 1.0 0.00 0.00 0.00 76 1006.6
20191018055715 73 0.0 0.0 0.00 0.00 0.00 74 1006.5
20191018054716 73 0.0 1.0 0.00 0.00 0.00 73 1006.6
20191018053716 73 0.0 0.0 0.00 0.00 0.00 71 1006.7
20191018052715 74 0.0 1.0 0.00 0.00 0.00 68 1006.7
20191018051724 74 90 1.0 2.0 0.00 0.00 0.00 69 1006.6
20191018050719 73 315 3.0 4.0 0.00 0.00 0.00 64 1006.6
20191018045716 74 112 1.0 1.0 0.00 0.00 0.00 65 1006.5
20191018044718 74 112 1.0 1.0 0.00 0.00 0.00 62 1006.4
20191018043715 74 0.0 1.0 0.00 0.00 0.00 60 1006.3
20191018042715 75 112 1.0 2.0 0.00 0.00 0.00 59 1006.2
20191018041722 76 112 2.0 3.0 0.00 0.00 0.00 58 1006.1
20191018040720 77 135 1.0 2.0 0.00 0.00 0.00 57 1006.0
20191018035724 77 157 2.0 3.0 0.00 0.00 0.00 57 1006.0
20191018034739 77 135 2.0 3.0 0.00 0.00 0.00 57 1005.9
20191018033719 78 135 1.0 2.0 0.00 0.00 0.00 56 1006.0
20191018032715 78 135 2.0 3.0 0.00 0.00 0.00 57 1005.9
20191018031717 78 157 1.0 1.0 0.00 0.00 0.00 56 1005.8
20191018030715 78 180 1.0 1.0 0.00 0.00 0.00 56 1005.8
20191018025717 78 180 1.0 2.0 0.00 0.00 0.00 56 1005.9
20191018024716 78 180 1.0 2.0 0.00 0.00 0.00 55 1005.9
20191018023715 78 180 1.0 1.0 0.00 0.00 0.00 56 1005.9
20191018022716 79 180 1.0 2.0 0.00 0.00 0.00 56 1005.7
20191018021738 79 202 2.0 3.0 0.00 0.00 0.00 55 1005.5
20191018020715 79 225 1.0 2.0 0.00 0.00 0.00 54 1005.6
20191018015715 80 225 1.0 3.0 0.00 0.00 0.00 53 1005.6
20191018014717 80 225 2.0 2.0 0.00 0.00 0.00 52 1005.4
20191018013717 81 225 2.0 2.0 0.00 0.00 0.00 52 1005.3
20191018012717 81 225 1.0 2.0 0.00 0.00 0.00 52 1005.4
20191018011717 82 225 1.0 2.0 0.00 0.00 0.00 50 1005.2
20191018010717 84 225 1.0 2.0 0.00 0.00 0.00 48 1005.2
20191018005717 85 225 2.0 2.0 0.00 0.00 0.00 45 1005.1
20191018004717 86 225 1.0 2.0 0.00 0.00 0.00 43 1005.0
20191018003717 88 247 3.0 3.0 0.00 0.00 0.00 41 1005.0
20191018002717 89 247 4.0 5.0 0.00 0.00 0.00 39 1005.1
20191018001717 89 247 4.0 7.0 0.00 0.00 0.00 39 1005.1
20191018000718 90 247 4.0 5.0 0.00 0.00 0.00 38 1005.1
20191017235717 90 247 7.0 9.0 0.00 0.00 0.00 37 1005.1
20191017234717 91 225 9.0 12.0 0.00 0.00 0.00 37 1005.1
20191017233720 92 225 6.0 9.0 0.00 0.00 0.00 36 1005.2
20191017232720 92 247 8.0 11.0 0.00 0.00 0.00 35 1005.2
20191017231717 93 247 6.0 9.0 0.00 0.00 0.00 34 1005.1
20191017230717 93 225 7.0 9.0 0.00 0.00 0.00 34 1005.2
20191017225719 93 225 8.0 10.0 0.00 0.00 0.00 32 1005.1
20191017224718 93 247 10.0 12.0 0.00 0.00 0.00 33 1005.2
20191017223722 94 247 9.0 12.0 0.00 0.00 0.00 32 1005.2
20191017222738 94 225 6.0 9.0 0.00 0.00 0.00 33 1005.2
20191017221802 94 225 8.0 11.0 0.00 0.00 0.00 32 1005.2
20191017220716 94 247 9.0 13.0 0.00 0.00 0.00 32 1005.3
20191017215717 94 247 7.0 11.0 0.00 0.00 0.00 34 1005.3
20191017214717 94 247 11.0 14.0 0.00 0.00 0.00 34 1005.3
20191017213716 95 225 7.0 10.0 0.00 0.00 0.00 33 1005.3
20191017212719 95 247 9.0 12.0 0.00 0.00 0.00 31 1005.3
20191017211719 95 225 6.0 8.0 0.00 0.00 0.00 28 1005.3
20191017210717 96 202 5.0 7.0 0.00 0.00 0.00 29 1005.4
20191017205719 96 225 7.0 10.0 0.00 0.00 0.00 29 1005.4
20191017204717 95 225 5.0 7.0 0.00 0.00 0.00 30 1005.5
20191017203726 95 225 4.0 7.0 0.00 0.00 0.00 30 1005.5
20191017202720 95 225 6.0 10.0 0.00 0.00 0.00 30 1005.7
20191017201716 94 270 4.0 6.0 0.00 0.00 0.00 30 1006.0
20191017200716 94 247 4.0 7.0 0.00 0.00 0.00 32 1006.1
20191017195718 94 270 5.0 9.0 0.00 0.00 0.00 32 1006.3
20191017194716 94 292 3.0 4.0 0.00 0.00 0.00 31 1006.6
20191017193720 94 180 4.0 5.0 0.00 0.00 0.00 30 1006.6
20191017192716 93 247 6.0 10.0 0.00 0.00 0.00 30 1006.6
20191017191717 93 247 4.0 7.0 0.00 0.00 0.00 30 1006.9
20191017190743 92 180 4.0 6.0 0.00 0.00 0.00 31 1006.9
20191017185717 92 202 3.0 5.0 0.00 0.00 0.00 30 1007.2
20191017184718 91 225 3.0 5.0 0.00 0.00 0.00 30 1007.4
20191017183716 91 225 4.0 5.0 0.00 0.00 0.00 31 1007.6
20191017182716 90 225 4.0 8.0 0.00 0.00 0.00 33 1007.7
20191017181717 90 247 5.0 6.0 0.00 0.00 0.00 34 1007.7
20191017180719 89 247 2.0 3.0 0.00 0.00 0.00 33 1008.0
20191017175716 89 225 5.0 6.0 0.00 0.00 0.00 33 1008.0
20191017174716 89 270 3.0 4.0 0.00 0.00 0.00 36 1008.1
20191017173716 89 225 3.0 4.0 0.00 0.00 0.00 35 1008.0
20191017172717 88 225 2.0 3.0 0.00 0.00 0.00 35 1007.9
20191017171716 87 270 2.0 3.0 0.00 0.00 0.00 35 1007.9
20191017170716 87 202 1.0 2.0 0.00 0.00 0.00 38 1008.0
20191017165716 86 247 1.0 2.0 0.00 0.00 0.00 38 1007.9
20191017164716 86 225 2.0 3.0 0.00 0.00 0.00 37 1008.0
20191017163716 86 270 2.0 3.0 0.00 0.00 0.00 39 1007.9
20191017162716 85 247 3.0 3.0 0.00 0.00 0.00 45 1007.8
20191017161719 84 225 1.0 2.0 0.00 0.00 0.00 47 1007.9
20191017160716 84 90 1.0 2.0 0.00 0.00 0.00 49 1007.7
20191017155717 83 90 1.0 1.0 0.00 0.00 0.00 53 1007.7
20191017154734 82 90 1.0 2.0 0.00 0.00 0.00 57 1007.6
20191017153716 80 90 1.0 2.0 0.00 0.00 0.00 59 1007.6
20191017152718 79 90 1.0 1.0 0.00 0.00 0.00 61 1007.7
20191017151719 78 90 2.0 2.0 0.00 0.00 0.00 63 1007.6
20191017150804 76 90 1.0 2.0 0.00 0.00 0.00 66 1007.6
20191017145717 75 67 2.0 3.0 0.00 0.00 0.00 68 1007.5
20191017144715 74 90 2.0 2.0 0.00 0.00 0.00 70 1007.5
20191017143718 71 112 1.0 2.0 0.00 0.00 0.00 74 1007.4
20191017142716 69 90 1.0 2.0 0.00 0.00 0.00 78 1007.5
20191017141716 67 90 1.0 1.0 0.00 0.00 0.00 81 1007.3
20191017140716 66 90 1.0 1.0 0.00 0.00 0.00 81 1007.1
20191017135716 66 0.0 0.0 0.00 0.00 0.00 81 1006.9
20191017134718 66 0.0 1.0 0.00 0.00 0.00 79 1006.9
20191017133716 66 90 2.0 3.0 0.00 0.00 0.00 79 1007.0
20191017132716 67 90 2.0 3.0 0.00 0.00 0.00 77 1006.8
20191017131717 67 112 1.0 1.0 0.00 0.00 0.00 77 1006.8
20191017130716 67 0.0 1.0 0.00 0.00 0.00 77 1006.7
20191017125715 67 112 2.0 2.0 0.00 0.00 0.00 78 1006.6
20191017124715 67 112 1.0 2.0 0.00 0.00 0.00 80 1006.4
20191017123715 67 0.0 1.0 0.00 0.00 0.00 80 1006.4
20191017122715 67 67 1.0 2.0 0.00 0.00 0.00 79 1006.2
20191017121715 68 0.0 0.0 0.00 0.00 0.00 76 1006.2
20191017120715 68 0.0 1.0 0.00 0.00 0.00 75 1006.1
20191017115716 68 67 1.0 2.0 0.00 0.00 0.00 76 1006.0
20191017114715 68 0.0 1.0 0.00 0.00 0.00 76 1006.0
20191017113715 68 0.0 1.0 0.00 0.00 0.00 76 1006.0
20191017112716 68 67 2.0 3.0 0.00 0.00 0.00 76 1006.0
20191017111715 68 0.0 1.0 0.00 0.00 0.00 76 1006.0
20191017110715 68 67 2.0 2.0 0.00 0.00 0.00 76 1005.9
20191017105715 69 67 1.0 2.0 0.00 0.00 0.00 74 1005.9
20191017104716 69 0.0 1.0 0.00 0.00 0.00 75 1005.7
20191017103715 69 0.0 0.0 0.00 0.00 0.00 74 1005.7
20191017102715 69 67 1.0 1.0 0.00 0.00 0.00 74 1005.8
20191017101716 69 67 1.0 1.0 0.00 0.00 0.00 75 1005.7
20191017100715 69 0.0 1.0 0.00 0.00 0.00 74 1005.7
20191017095715 70 0.0 0.0 0.00 0.00 0.00 73 1005.6
20191017094715 70 0.0 1.0 0.00 0.00 0.00 72 1005.7
20191017093717 70 0.0 0.0 0.00 0.00 0.00 72 1005.7
20191017092717 71 0.0 1.0 0.00 0.00 0.00 72 1005.6
20191017091717 71 0.0 1.0 0.00 0.00 0.00 72 1005.7
20191017090717 71 135 2.0 2.0 0.00 0.00 0.00 73 1005.7
20191017085717 71 135 1.0 2.0 0.00 0.00 0.00 74 1005.7
20191017084717 71 135 1.0 1.0 0.00 0.00 0.00 74 1005.6
20191017083717 71 135 1.0 1.0 0.00 0.00 0.00 74 1005.4
20191017082722 71 135 1.0 1.0 0.00 0.00 0.00 73 1005.4
20191017081717 72 0.0 1.0 0.00 0.00 0.00 72 1005.4
20191017080717 72 0.0 1.0 0.00 0.00 0.00 70 1005.4
20191017075717 72 0.0 0.0 0.00 0.00 0.00 69 1005.4
20191017074716 73 135 1.0 2.0 0.00 0.00 0.00 68 1005.4
20191017073716 74 135 1.0 1.0 0.00 0.00 0.00 66 1005.5
20191017072737 75 45 2.0 2.0 0.00 0.00 0.00 64 1005.4
20191017071717 76 0 1.0 1.0 0.00 0.00 0.00 62 1005.4
20191017070718 77 0 1.0 1.0 0.00 0.00 0.00 60 1005.4
20191017065715 77 0 3.0 4.0 0.00 0.00 0.00 60 1005.4